CW4421 Weather Reports


Display with metric or nautical units.
time (UTC)temp
F
wind
direction
speed
MPH
gust
MPH
rain 1hr
in
rain 24hr
in
rain mn
in
humidity
%
barometer
mb
20260505024612 73 116 3.0 5.0 0.00 0.00 0.00 53 997.9
20260505023059 74 129 3.0 5.0 0.00 0.00 0.00 51 997.5
20260505021558 74 156 3.0 11.0 0.00 0.00 0.00 50 997.4
20260505020108 75 155 4.0 6.0 0.00 0.00 0.00 46 996.9
20260505014557 75 142 2.0 4.0 0.00 0.00 0.00 45 997.4
20260505013056 75 178 2.0 5.0 0.00 0.00 0.00 45 997.2
20260505011601 76 202 4.0 6.0 0.00 0.00 0.00 44 996.9
20260505010110 77 191 4.0 5.0 0.00 0.00 0.00 42 996.6
20260505004620 79 190 3.0 6.0 0.00 0.00 0.00 40 996.3
20260505003059 80 163 3.0 8.0 0.00 0.00 0.00 39 996.3
20260505001553 81 166 4.0 6.0 0.00 0.00 0.00 36 996.3
20260505000104 82 175 5.0 9.0 0.00 0.00 0.00 34 996.4
20260504234553 83 170 5.0 12.0 0.00 0.00 0.00 34 996.8
20260504233052 84 153 8.0 12.0 0.00 0.00 0.00 35 996.8
20260504231619 84 182 8.0 12.0 0.00 0.00 0.00 34 996.8
20260504230050 84 125 2.0 8.0 0.00 0.00 0.00 33 996.5
20260504224549 84 133 3.0 8.0 0.00 0.00 0.00 33 996.8
20260504223049 85 98 2.0 8.0 0.00 0.00 0.00 30 996.8
20260504221625 85 136 4.0 13.0 0.00 0.00 0.00 27 996.9
20260504220046 85 116 3.0 8.0 0.00 0.00 0.00 28 997.2
20260504214546 85 126 3.0 10.0 0.00 0.00 0.00 26 997.4
20260504213046 86 109 7.0 15.0 0.00 0.00 0.00 25 997.4
20260504211546 86 157 4.0 11.0 0.00 0.00 0.00 26 997.5
20260504210048 86 97 5.0 12.0 0.00 0.00 0.00 24 997.8
20260504204542 87 109 5.0 14.0 0.00 0.00 0.00 25 998.0
20260504203044 87 107 6.0 12.0 0.00 0.00 0.00 27 998.2
20260504201544 86 85 6.0 11.0 0.00 0.00 0.00 26 998.5
20260504200040 85 157 5.0 14.0 0.00 0.00 0.00 28 998.6
20260504194546 85 165 5.0 11.0 0.00 0.00 0.00 27 999.0
20260504193044 85 132 5.0 13.0 0.00 0.00 0.00 27 999.0
20260504191604 87 121 7.0 13.0 0.00 0.00 0.00 26 999.0
20260504190038 86 131 6.0 10.0 0.00 0.00 0.00 27 999.1
20260504184542 84 88 4.0 12.0 0.00 0.00 0.00 25 999.1
20260504183031 85 62 3.0 9.0 0.00 0.00 0.00 25 999.5
20260504181533 85 79 9.0 15.0 0.00 0.00 0.00 25 999.7
20260504180034 84 69 6.0 15.0 0.00 0.00 0.00 24 999.8
20260504174527 84 82 7.0 12.0 0.00 0.00 0.00 25 1000.0
20260504173025 83 67 6.0 15.0 0.00 0.00 0.00 24 1000.0
20260504171521 82 80 2.0 9.0 0.00 0.00 0.00 28 1000.1
20260504140103 69 210 7.0 12.0 0.00 0.00 0.00 46 1000.2
20260504081511 65 216 10.0 16.0 0.00 0.00 0.00 45 1001.4
20260504044538 72 211 10.0 19.0 0.00 0.00 0.00 33 1003.2
20260504043040 71 215 14.0 19.0 0.00 0.00 0.00 34 1003.3
20260504041536 67 215 8.0 14.0 0.00 0.00 0.00 38 1003.4
20260504040036 63 207 7.0 10.0 0.00 0.00 0.00 43 1003.5
20260504034535 61 194 4.0 6.0 0.00 0.00 0.00 44 1003.4
20260504033044 62 192 5.0 6.0 0.00 0.00 0.00 44 1003.4
20260504031534 64 176 5.0 6.0 0.00 0.00 0.00 41 1003.3
20260504030034 65 165 4.0 7.0 0.00 0.00 0.00 39 1003.3